Wind_Speed
107 107 106 104 97 92 86 80 75 73 77 77 74 70 67 68 72 75 82 87 92 96 100 104 112 118 119 126 132 133 128 127 120 115 112 107 101 95
99 96 92 89 86 81 77 75 71 66 64 73 74 66 63 63 65 67 73 77 84 88 91 96 102 108 114 118 123 129 131 134 126 122 119 116 111 105
89 86 84 80 77 75 72 69 66 64 58 70 70 68 64 60 60 63 68 70 73 79 84 88 92 99 105 111 118 121 126 130 131 131 127 122 119 114
83 80 78 75 72 69 68 66 63 61 54 58 65 65 63 60 57 58 63 66 67 71 77 81 85 90 96 102 110 117 121 124 128 134 133 128 126 121
78 75 73 70 68 66 64 62 60 57 53 51 59 59 59 59 56 55 58 61 64 65 70 75 79 83 87 94 100 108 116 121 123 127 129 136 133 129
75 72 69 67 66 65 62 60 57 56 54 50 53 54 54 54 52 53 53 56 59 63 65 70 73 77 81 86 93 99 108 115 121 123 126 129 141 136
72 68 66 64 61 57 54 52 50 50 49 46 47 49 50 50 47 48 49 51 56 60 61 64 69 72 76 80 84 93 100 108 114 122 121 128 135 140
68 66 64 60 57 54 51 48 46 46 45 43 42 43 45 47 44 43 45 46 53 54 57 60 64 68 70 73 78 84 92 101 107 115 121 128 128 133
62 62 60 56 55 53 50 47 44 42 40 39 39 37 40 41 40 38 41 44 48 49 51 54 58 62 65 68 72 77 84 93 102 108 116 122 125 128
60 58 56 55 51 50 47 44 40 37 36 34 35 32 34 35 36 35 38 41 43 44 47 49 54 55 59 64 66 72 78 86 95 103 110 115 117 123
58 55 54 51 47 45 42 40 37 35 33 31 29 29 29 29 29 31 34 36 38 41 44 43 48 48 55 61 63 67 72 79 87 94 101 106 111 115
57 54 50 45 42 40 38 36 33 32 30 29 26 25 25 24 25 27 29 30 34 38 40 39 43 44 49 54 57 61 66 71 78 85 92 99 103 106
56 53 47 41 36 36 35 33 32 30 27 25 24 24 22 21 22 23 26 29 34 38 36 35 38 40 44 50 54 57 61 65 71 78 83 88 92 96
54 48 44 40 35 34 33 31 30 28 25 23 22 22 20 19 20 21 24 27 30 31 32 35 36 37 42 48 53 56 58 61 66 72 77 81 84 89
49 44 41 38 35 34 31 29 27 26 23 21 19 19 18 16 17 19 21 24 27 28 31 33 35 37 39 44 50 52 55 58 61 65 71 75 79 83
43 40 37 36 33 30 30 27 25 24 22 20 18 17 17 16 16 17 20 22 24 27 29 31 33 36 38 41 44 47 50 53 57 60 65 71 75 79
40 37 34 33 33 31 28 27 24 23 21 19 18 17 17 17 16 17 19 21 23 25 27 29 31 33 36 39 42 44 47 51 54 57 60 63 69 73
39 36 33 32 30 28 27 26 24 22 20 19 18 17 17 17 17 17 18 21 23 25 27 28 29 31 33 36 39 41 44 46 49 52 55 58 62 67
38 37 33 32 30 28 25 25 24 22 20 18 18 18 17 17 18 18 19 19 21 24 26 27 28 30 32 34 37 40 41 43 45 48 50 53 56 60
37 36 35 32 30 28 27 24 23 22 20 19 18 19 19 18 18 19 19 20 20 22 24 25 27 29 31 33 34 36 39 40 43 45 48 51 53 55
36 35 35 34 30 28 26 24 23 21 21 19 19 19 20 20 20 20 20 21 22 23 24 25 26 28 29 31 33 35 37 38 41 43 45 47 49 51
35 33 32 33 32 28 26 24 22 21 21 20 20 20 21 22 22 22 22 23 24 24 24 26 27 28 28 29 31 32 34 36 38 40 42 44 46 49
33 33 32 31 31 31 27 24 22 21 21 21 21 21 22 23 24 24 25 26 26 26 27 27 28 29 30 32 33 34 35 36 37 39 40 42 44 46
Wind_Direction
296 294 294 294 293 292 291 289 286 284 283 279 275 271 266 260 256 251 249 247 245 243 242 240 238 237 235 237 238 237 233 230 229 228 228 228 229 229
298 296 296 295 295 294 293 291 288 285 283 281 278 273 267 262 258 253 249 246 244 243 241 239 238 236 234 232 234 235 235 233 230 228 228 227 228 228
301 300 299 298 297 296 294 292 290 287 281 278 276 274 270 263 258 254 251 246 243 242 241 239 237 236 234 232 231 231 232 233 233 229 229 228 227 227
304 303 302 301 300 298 296 293 291 286 281 274 273 272 270 266 260 254 252 249 244 240 239 238 237 236 234 232 230 229 229 230 230 230 228 228 228 227
307 305 304 303 302 299 297 293 290 285 281 274 272 270 268 266 262 255 251 249 247 242 238 237 236 235 233 231 229 228 227 227 227 228 226 226 227 227
309 308 306 305 303 301 298 295 292 288 284 278 274 272 268 265 260 256 250 248 245 242 238 235 234 233 232 230 228 226 226 226 227 226 224 224 225 226
310 308 307 306 302 301 298 296 292 289 285 281 276 273 270 266 259 255 248 243 242 240 238 234 233 233 231 230 228 226 225 225 226 226 225 224 225 225
311 310 308 307 306 304 302 299 296 292 289 284 278 275 271 267 261 255 250 241 240 239 237 234 232 231 231 230 227 226 225 224 225 226 225 224 224 224
312 309 308 308 307 305 304 301 297 293 288 284 277 273 270 268 263 255 248 243 239 237 235 235 233 231 230 230 227 225 224 223 224 225 224 226 226 224
312 311 310 309 309 306 305 303 300 295 292 287 280 272 268 266 263 256 247 244 239 237 236 232 233 230 228 229 226 225 224 223 223 223 224 225 226 226
313 313 312 312 311 308 306 305 302 298 295 290 280 274 269 263 260 252 245 244 240 237 235 231 233 227 225 227 227 224 224 223 223 224 224 225 226 226
315 315 315 314 313 308 307 306 304 299 296 292 285 278 271 262 256 250 241 238 235 233 234 229 230 226 224 226 227 226 223 223 224 224 224 224 225 226
316 316 316 316 314 310 310 308 307 302 297 291 285 281 274 262 255 248 239 231 228 229 230 228 228 225 223 224 226 226 224 223 222 225 225 225 225 224
317 318 318 318 316 313 311 310 308 303 299 291 286 283 275 264 256 247 238 230 228 228 224 224 224 223 221 222 224 224 224 222 221 222 225 226 225 224
318 318 318 317 318 315 313 310 308 302 297 289 282 279 274 263 253 245 238 232 227 224 224 223 222 221 220 221 222 224 224 224 223 222 222 225 226 225
318 318 318 317 317 315 314 310 309 302 295 287 278 274 269 258 248 243 238 231 225 223 223 223 222 221 221 223 225 225 226 225 224 224 223 223 224 226
319 319 318 318 318 319 317 312 308 302 293 286 275 269 264 258 248 241 237 233 227 222 222 222 222 221 219 221 222 223 224 224 224 223 223 223 225 226
319 319 320 318 318 319 317 313 308 302 291 282 274 265 259 253 247 240 235 235 232 225 221 220 219 218 217 217 219 221 223 224 224 224 225 225 225 226
319 319 320 321 320 319 317 313 309 302 293 280 273 266 257 251 246 240 234 230 232 231 225 221 219 218 217 216 216 218 221 222 224 225 226 227 227 228
319 319 319 321 319 317 315 312 309 303 292 282 271 265 260 252 248 240 234 229 226 223 223 222 221 220 220 219 218 219 221 222 223 224 225 227 228 229
318 318 317 318 319 315 312 309 306 303 293 284 274 265 259 255 248 244 238 231 227 224 220 219 218 219 219 220 219 219 221 222 224 225 226 227 228 229
316 316 315 314 316 315 312 308 303 300 294 285 276 267 259 253 250 243 241 238 231 227 224 221 220 219 219 220 221 222 223 224 224 225 226 227 228 229
314 315 315 313 311 312 313 308 302 295 292 287 278 269 263 257 251 247 243 240 237 234 229 227 227 226 224 223 224 225 226 226 227 227 228 228 229 229
Height
10225 10208 10193 10179 10169 10160 10153 10149 10147 10141 10126 10118 10120 10124 10132 10136 10136 10142 10145 10152 10161 10172 10183 10197 10210 10227 10249 10267 10285 10305 10337 10349 10371 10390 10405 10421 10437 10450
10193 10178 10164 10151 10138 10131 10125 10119 10116 10117 10113 10092 10086 10095 10101 10105 10108 10114 10117 10123 10130 10139 10151 10162 10174 10190 10208 10229 10245 10268 10293 10312 10339 10358 10373 10390 10407 10424
10162 10149 10135 10125 10114 10106 10098 10092 10090 10087 10092 10069 10066 10066 10070 10078 10083 10087 10088 10095 10105 10112 10121 10132 10144 10157 10173 10193 10210 10232 10256 10279 10305 10324 10342 10361 10377 10393
10135 10122 10110 10100 10091 10083 10076 10069 10065 10061 10065 10057 10043 10044 10047 10050 10057 10063 10064 10070 10079 10088 10095 10105 10116 10129 10142 10160 10179 10199 10220 10242 10265 10285 10313 10336 10344 10364
10112 10100 10088 10078 10069 10060 10053 10047 10044 10039 10038 10038 10023 10024 10025 10028 10034 10039 10043 10048 10054 10063 10072 10080 10092 10102 10116 10132 10150 10169 10187 10206 10231 10248 10275 10298 10315 10333
10090 10078 10068 10060 10050 10041 10033 10027 10021 10017 10014 10014 10007 10006 10006 10008 10014 10018 10023 10028 10033 10038 10047 10056 10067 10078 10090 10103 10122 10141 10157 10176 10194 10215 10236 10263 10278 10301
10070 10059 10050 10043 10034 10025 10018 10011 10005 9999 9995 9993 9991 9988 9987 9988 9994 9998 10002 10008 10010 10016 10025 10036 10046 10056 10068 10080 10097 10113 10131 10148 10165 10183 10208 10225 10240 10268
10053 10041 10033 10025 10016 10008 10001 9995 9990 9984 9979 9976 9974 9972 9970 9970 9975 9979 9983 9989 9993 10001 10008 10017 10026 10035 10049 10061 10076 10090 10107 10124 10139 10155 10173 10188 10209 10232
10040 10028 10018 10011 10001 9991 9986 9980 9975 9970 9965 9962 9960 9959 9956 9956 9959 9963 9967 9971 9978 9985 9992 10001 10011 10020 10031 10044 10058 10070 10084 10099 10113 10128 10145 10160 10181 10202
10025 10015 10005 9997 9988 9979 9972 9966 9961 9957 9952 9950 9947 9947 9945 9945 9946 9950 9953 9957 9964 9972 9977 9986 9993 10006 10016 10026 10039 10051 10063 10077 10089 10103 10118 10134 10154 10175
10010 10002 9992 9982 9974 9966 9961 9955 9950 9945 9941 9938 9936 9935 9935 9935 9937 9939 9942 9947 9953 9958 9963 9975 9980 9994 10001 10009 10020 10033 10045 10057 10069 10082 10098 10113 10129 10146
9996 9988 9980 9971 9963 9956 9950 9945 9940 9935 9932 9928 9926 9926 9926 9926 9927 9929 9933 9938 9942 9946 9953 9963 9968 9978 9988 9997 10006 10017 10028 10040 10051 10062 10076 10088 10104 10122
9982 9974 9967 9960 9954 9947 9941 9936 9931 9927 9924 9921 9919 9918 9918 9918 9919 9921 9924 9927 9930 9934 9944 9952 9957 9967 9976 9984 9992 10001 10011 10024 10035 10044 10056 10069 10083 10101
9971 9963 9955 9949 9944 9938 9933 9928 9923 9919 9916 9914 9912 9911 9911 9911 9913 9914 9916 9919 9923 9930 9936 9942 9949 9956 9963 9969 9976 9984 9994 10006 10017 10028 10038 10049 10064 10079
9961 9953 9946 9940 9935 9929 9925 9921 9916 9912 9910 9908 9906 9905 9905 9905 9907 9908 9911 9914 9918 9923 9928 9933 9939 9946 9952 9958 9964 9972 9981 9991 10001 10012 10023 10034 10045 10058
9953 9946 9939 9932 9927 9923 9917 9913 9910 9906 9904 9902 9900 9900 9899 9900 9901 9903 9905 9908 9913 9917 9921 9925 9931 9937 9943 9948 9955 9962 9970 9980 9989 9999 10007 10017 10028 10038
9945 9938 9932 9926 9920 9914 9910 9906 9903 9901 9898 9897 9895 9895 9895 9895 9896 9898 9901 9903 9906 9910 9914 9918 9923 9929 9935 9940 9945 9951 9957 9965 9974 9983 9993 10003 10013 10023
9936 9930 9924 9919 9914 9909 9904 9900 9897 9895 9893 9891 9891 9890 9890 9891 9892 9893 9895 9898 9900 9903 9907 9911 9915 9921 9926 9931 9937 9942 9947 9954 9962 9970 9978 9988 9997 10006
9927 9922 9917 9911 9906 9902 9898 9894 9891 9889 9887 9886 9885 9885 9885 9886 9887 9888 9890 9892 9895 9898 9900 9904 9908 9912 9917 9922 9928 9933 9939 9945 9952 9958 9966 9974 9982 9990
9920 9914 9909 9904 9899 9895 9891 9888 9885 9883 9881 9880 9879 9879 9879 9880 9881 9883 9885 9887 9889 9892 9896 9899 9902 9905 9910 9914 9919 9925 9930 9935 9941 9947 9954 9961 9967 9975
9912 9907 9902 9897 9893 9889 9885 9882 9879 9876 9875 9874 9873 9872 9873 9874 9876 9877 9879 9881 9883 9886 9889 9892 9896 9899 9903 9908 9912 9916 9921 9926 9931 9937 9943 9949 9955 9961
9904 9899 9895 9890 9885 9882 9878 9875 9872 9870 9868 9867 9866 9866 9866 9867 9869 9870 9872 9874 9877 9879 9882 9886 9889 9893 9897 9900 9904 9908 9912 9917 9921 9927 9932 9937 9942 9948
9896 9891 9887 9882 9878 9873 9870 9867 9864 9862 9861 9860 9859 9859 9859 9859 9860 9862 9864 9866 9869 9872 9875 9878 9881 9884 9888 9892 9896 9899 9903 9907 9911 9916 9920 9925 9930 9935